TimeCST,TemperatureF,Dew PointF,Humidity,Sea Level PressureIn,VisibilityMPH,Wind Direction,Wind SpeedMPH,Gust SpeedMPH,PrecipitationIn,Events,Conditions,WindDirDegrees,DateUTC
12:53 AM,68.0,66.9,96,30.06,9.0,Calm,Calm,-,0.00,,Overcast,0,2013-11-07 06:53:00
1:26 AM,68.0,66.2,94,30.05,8.0,Calm,Calm,-,N/A,,Overcast,0,2013-11-07 07:26:00
1:50 AM,69.8,68.0,94,30.04,7.0,Calm,Calm,-,N/A,,Overcast,0,2013-11-07 07:50:00
1:53 AM,69.1,68.0,96,30.05,7.0,Calm,Calm,-,N/A,,Overcast,0,2013-11-07 07:53:00
2:20 AM,69.8,69.8,100,30.04,7.0,Calm,Calm,-,N/A,,Overcast,0,2013-11-07 08:20:00
2:36 AM,69.8,69.8,100,30.03,7.0,Calm,Calm,-,N/A,,Overcast,0,2013-11-07 08:36:00
2:53 AM,71.1,70.0,96,30.04,4.0,SW,3.5,-,0.00,Rain,Light Rain,230,2013-11-07 08:53:00
2:58 AM,71.6,69.8,94,30.04,6.0,SW,3.5,-,0.00,Rain,Light Rain,230,2013-11-07 08:58:00
3:36 AM,69.8,69.8,100,30.04,2.5,WNW,4.6,-,0.03,Rain,Light Rain,300,2013-11-07 09:36:00
3:43 AM,69.8,68.0,94,30.05,4.0,NW,4.6,-,0.03,Rain,Light Rain,310,2013-11-07 09:43:00
3:53 AM,69.1,68.0,96,30.05,5.0,NW,11.5,18.4,0.03,Rain,Light Rain,320,2013-11-07 09:53:00
4:01 AM,68.0,66.2,94,30.05,10.0,NNW,8.1,18.4,0.00,,Overcast,330,2013-11-07 10:01:00
4:09 AM,68.0,66.2,94,30.05,10.0,NNW,8.1,-,0.00,,Overcast,330,2013-11-07 10:09:00
4:53 AM,66.9,64.9,93,30.07,10.0,NNW,9.2,-,0.00,,Overcast,340,2013-11-07 10:53:00
5:27 AM,66.2,64.4,94,30.08,10.0,North,12.7,-,N/A,,Overcast,350,2013-11-07 11:27:00
5:53 AM,66.0,64.0,93,30.10,10.0,North,12.7,-,N/A,,Overcast,350,2013-11-07 11:53:00
6:03 AM,66.2,64.4,94,30.10,10.0,North,10.4,-,N/A,,Overcast,350,2013-11-07 12:03:00
6:29 AM,66.2,64.4,94,30.11,10.0,NNW,10.4,19.6,N/A,,Overcast,340,2013-11-07 12:29:00
6:41 AM,66.2,64.4,94,30.12,10.0,NNW,11.5,20.7,N/A,,Overcast,340,2013-11-07 12:41:00
6:53 AM,66.0,63.0,90,30.14,10.0,NNW,11.5,20.7,N/A,,Overcast,340,2013-11-07 12:53:00
7:10 AM,66.2,62.6,88,30.14,10.0,NNW,10.4,20.7,N/A,,Overcast,340,2013-11-07 13:10:00
7:46 AM,64.4,60.8,88,30.15,10.0,North,16.1,27.6,N/A,,Overcast,350,2013-11-07 13:46:00
7:53 AM,64.0,60.1,87,30.16,10.0,North,16.1,23.0,N/A,,Overcast,350,2013-11-07 13:53:00
8:53 AM,63.0,59.0,87,30.19,10.0,NNW,11.5,20.7,N/A,,Overcast,340,2013-11-07 14:53:00
9:53 AM,60.1,55.9,86,30.20,-9999.0,North,20.7,25.3,N/A,,Overcast,360,2013-11-07 15:53:00
10:44 AM,59.0,55.4,88,30.20,10.0,North,13.8,20.7,N/A,,Overcast,350,2013-11-07 16:44:00
10:53 AM,59.0,54.0,83,30.21,10.0,North,-9999.0,-,N/A,,Overcast,0,2013-11-07 16:53:00
11:09 AM,60.8,53.6,77,30.20,10.0,North,-9999.0,-,N/A,,Overcast,0,2013-11-07 17:09:00
11:30 AM,59.0,51.8,77,30.19,10.0,North,21.9,27.6,N/A,,Unknown,350,2013-11-07 17:30:00
11:53 AM,60.1,52.0,75,30.20,10.0,North,16.1,29.9,N/A,,Unknown,10,2013-11-07 17:53:00
12:09 PM,60.8,51.8,72,30.19,10.0,North,17.3,24.2,N/A,,Overcast,350,2013-11-07 18:09:00
12:53 PM,-9999,-9999,N/A,30.18,10.0,NNW,16.1,25.3,N/A,,Scattered Clouds,340,2013-11-07 18:53:00
1:53 PM,62.1,48.9,62,30.17,10.0,NNW,13.8,21.9,N/A,,Clear,340,2013-11-07 19:53:00
2:53 PM,61.0,45.0,56,30.17,10.0,North,16.1,24.2,N/A,,Clear,360,2013-11-07 20:53:00
3:53 PM,60.1,44.1,55,30.18,10.0,North,16.1,24.2,N/A,,Clear,350,2013-11-07 21:53:00
4:53 PM,55.9,44.1,64,30.20,10.0,North,6.9,-,N/A,,Clear,350,2013-11-07 22:53:00
5:53 PM,52.0,43.0,71,30.23,10.0,North,5.8,-,N/A,,Clear,360,2013-11-07 23:53:00
6:53 PM,54.0,39.0,57,30.24,10.0,North,16.1,23.0,N/A,,Clear,360,2013-11-08 00:53:00
7:53 PM,53.1,39.0,59,30.27,10.0,North,8.1,-,N/A,,Clear,10,2013-11-08 01:53:00
8:53 PM,52.0,39.0,61,30.28,10.0,North,9.2,-,N/A,,Clear,350,2013-11-08 02:53:00
9:53 PM,51.1,37.9,61,30.27,10.0,North,11.5,-,N/A,,Clear,360,2013-11-08 03:53:00
10:53 PM,48.9,37.9,66,30.28,10.0,North,10.4,-,N/A,,Clear,10,2013-11-08 04:53:00
11:53 PM,48.9,36.0,61,30.26,10.0,NNE,9.2,-,N/A,,Clear,20,2013-11-08 05:53:00